www.pogodaiklimat.ru

Погода и климат >> Архив погоды >> Малайзия >> Кучинг


ПОГОДА в Кучинге

  • Прогноз погоды в Кучинге
  • Монитор погоды в Кучинге

АРХИВ ПОГОДЫ в Кучинге

Время (UTC), дата Ветер
(напр.,м/с)
 
Видим.   Явления Облачность Т
(С)
Тd
(С)
f
(%)
Тe
(С)
Тes
(С)
Комфортность P
(гПа)
Po
(гПа)
Тmin
(С)
Tmax
(С)
R
(мм)
R24
(мм)
S
(см)
09 11.07 З 2 14 км мгла 8/4 600 м
[Cu hum Ac lent Ci fib]
+33.0 +24.5 61 +46 +47 опасность
перегрева
1009.3 1006.7
12 11.07 СЗ 3 10 км зарница 9/4 450 м
[Cb cap Ac trans Ci fib]
+30.0 +24.7 73 +43 +43 опасность
перегрева
1011.0 1008.4 +34.2
15 11.07 З 2 10 км зарница 9/4 450 м
[Cb cap Ac trans Ci fib]
+27.8 +25.1 85 +40 +40 очень
душно
1012.2 1009.6
18 11.07 ЮВ 4 8000 м гроза, ливневой дождь 9/5 450 м
[Cb cap Ac As]
+22.7 +21.7 94 +30 +30 очень
душно
1012.7 1010.0 6
21 11.07 Ю 2 5000 м гроза, ливневой дождь 9/5 450 м
[Cb cap Ac As]
+23.1 +22.8 98 +32 +32 очень
душно
1012.9 1010.2
00 12.07 штиль 0 14 км осадки на расстоянии {гроза} 9/8 450 м
[Cb cap Ac cuf]
+23.9 +23.4 97 +32 +32 очень
душно
1013.2 1010.5 +22.7 31
03 12.07 ЮВ 2 15 км в посл. час дождь 9/4 120 м
[Sc Ac As Ci sp]
+25.3 +23.9 92 +35 +41 очень
душно
1014.1 1011.4
06 12.07 ЮВ 2 15 км слаб. дождь 9/5 300 м
[Sc Ac As]
+26.4 +25.0 92 +38 +42 очень
душно
1012.0 1009.3 0.4
09 12.07 Ю 2 20 км 9/4 360 м
[St Ac trans Ci fib]
+27.8 +24.7 83 +39 +41 очень
душно
1009.3 1006.7
12 12.07 З 2 15 км {дождь} 9/3 600 м
[Sc Ac trans Ci fib]
+26.1 +24.5 91 +37 +37 очень
душно
1011.1 1008.4 +30.0 0.0
15 12.07 штиль 0 15 км 9/3 600 м
[Sc Ac trans Ci fib]
+25.2 +24.4 95 +35 +35 очень
душно
1013.0 1010.3
18 12.07 штиль 0 15 км 9/4 600 м
[Sc Ac trans Ci fib]
+24.7 +24.2 97 +34 +34 очень
душно
1012.0 1009.3
21 12.07 ЮЗ 1 8000 м дымка 9/4 <50 м
[Sc Ac lent Ci fib]
+23.8 +23.4 98 +32 +32 очень
душно
1012.0 1009.3
00 13.07 ЮВ 1 20 км 9/4 450 м
[Cb cap Ac lent Ci fib]
+25.0 +24.1 95 +34 +35 очень
душно
1013.4 1010.7 +23.3 0.4
03 13.07 ЮВ 3 20 км 8/1 420 м
[Cu med, cong Ac lent Ci fib]
+30.7 +24.0 68 +43 +51 опасность
перегрева
1012.8 1010.1
06 13.07 Ю 5 9000 м гроза, ливневой дождь 9/5 450 м
[Cb cap Ac cuf Ci ing]
+27.9 +25.6 87 +41 +44 опасность
перегрева
1010.5 1007.9 2
09 13.07 З 4 10 км осадки на расстоянии {гроза, ливн. осадки} 9/6 150 м
[Cb cap Ac As Ci fib]
+25.7 +23.2 86 +34 +35 очень
душно
1010.2 1007.5
12 13.07 Ю 2 15 км {дождь} 9/3 600 м
[Sc Ac trans Ci fib]
+24.0 +23.6 98 +33 +33 очень
душно
1010.6 1007.9 +32.8 4
15 13.07 СЗ 1 15 км 9/3 600 м
[Sc Ac trans Ci fib]
+24.0 +23.3 96 +32 +32 очень
душно
1011.8 1009.1
18 13.07 штиль 0 8000 м дымка 9/3 <50 м
[Sc Ac trans Ci fib]
+23.5 +23.2 98 +31 +31 очень
душно
1010.6 1007.9
21 13.07 З 1 15 км 9/3 <50 м
[St Ac lent Ci fib]
+23.3 +23.0 98 +33 +33 очень
душно
1010.6 1007.9
00 14.07 Ю 1 20 км 9/3 50 м
[Cu hum Ac lent Ci fib]
+24.4 +23.3 94 +33 +34 очень
душно
1011.7 1009.0 +22.8 6
03 14.07 ЮВ 4 20 км 9/3 480 м
[Cu hum Ac lent Ci fib]
+29.7 +24.5 74 +42 +47 опасность
перегрева
1010.9 1008.3
06 14.07 ЮВ 4 20 км 9/4 600 м
[Cu hum Ac trans Ci fib]
+32.5 +24.0 61 +44 +49 опасность
перегрева
1008.2 1005.6
09 14.07 ЮЗ 3 9000 м гроза, ливневой дождь 9/8 450 м
[Cb cap Ac cuf Ci ing]
+29.7 +25.1 76 +43 +43 опасность
перегрева
1007.6 1005.0
12 14.07 штиль 0 15 км 9/3 600 м
[Sc Ac lent Ci fib]
+25.6 +24.6 94 +36 +36 очень
душно
1009.0 1006.4 +33.3 9
15 14.07 Ю 1 15 км 9/3 600 м
[Sc Ac lent Ci fib]
+25.0 +24.5 97 +35 +35 очень
душно
1010.0 1007.3
18 14.07 штиль 0 15 км 9/3 600 м
[Sc Ac lent Ci fib]
+24.2 +23.4 95 +32 +32 очень
душно
1009.6 1006.9
21 14.07 Ю 1 15 км 9/3 600 м
[Sc Ac lent Ci fib]
+23.2 +22.4 95 +32 +32 очень
душно
1009.0 1006.3
00 15.07 Ю 1 10 км мгла 8/1 50 м
[Cu hum Ac lent Ci fib]
+24.1 +22.5 91 +32 +33 очень
душно
1010.1 1007.4 +22.7 9
03 15.07 Ю 3 10 км мгла 8/1 480 м
[Cu hum Ac trans Ci fib]
+29.9 +23.6 69 +41 +48 опасность
перегрева
1010.4 1007.7
06 15.07 ЮВ 3 12 км мгла 9/5 600 м
[Cu hum Ac trans Ci fib]
+31.8 +23.0 60 +42 +47 опасность
перегрева
1008.6 1006.0
09 15.07 Ю 3 12 км мгла 9/4 600 м
[Cu med, cong Ac lent Ci fib]
+32.1 +22.4 57 +42 +43 опасность
перегрева
1007.0 1004.4
12 15.07 Ю 2 10 км мгла 9/4 600 м
[Sc Ac trans Ci fib]
+28.3 +22.4 70 +37 +37 очень
душно
1008.8 1006.1 +32.8
15 15.07 Ю 2 10 км мгла 9/3 600 м
[Sc Ac trans Ci fib]
+25.8 +22.3 81 +34 +34 очень
душно
1010.5 1007.8
18 15.07 Ю 1 10 км мгла 9/3 600 м
[Sc Ac trans Ci fib]
+24.5 +21.3 82 +31 +31 очень
душно
1009.6 1006.9
21 15.07 штиль 0 10 км мгла 9/3 600 м
[Sc Ac lent Ci fib]
+23.4 +20.9 86 +31 +31 очень
душно
1009.0 1006.3
00 16.07 ЮВ 2 10 км мгла 9/1 100 м
[Sc Ac trans Ci fib]
+24.8 +21.9 84 +32 +33 очень
душно
1009.7 1007.0 +22.8
03 16.07 ЮВ 5 10 км мгла 9/1 480 м
[Cu med, cong Ac lent Ci fib]
+29.2 +21.4 63 +37 +42 очень
душно
1010.3 1007.6
06 16.07 ЮВ 3 12 км мгла 9/3 600 м
[Cu med, cong Ac lent Ci fib]
+31.4 +21.2 55 +39 +46 очень
душно
1007.8 1005.1
09 16.07 Ю 3 12 км мгла 9/3 600 м
[Cu med, cong Ac lent Ci fib]
+32.2 +20.5 50 +39 +40 очень
душно
1006.4 1003.7
12 16.07 ЮВ 2 10 км мгла 9/3 600 м
[Sc Ac trans Ci fib]
+27.4 +22.4 74 +36 +36 очень
душно
1007.4 1004.7 +32.5
15 16.07 Ю 2 10 км мгла 9/1 600 м
[Sc Ac trans Ci fib]
+25.8 +22.0 80 +33 +33 очень
душно
1009.5 1006.8
18 16.07 штиль 0 10 км мгла 9/3 600 м
[Sc Ac trans Ci fib]
+24.3 +22.0 87 +31 +31 очень
душно
1008.9 1006.2
21 16.07 З 1 10 км мгла 9/3 600 м
[Sc Ac lent Ci fib]
+23.5 +21.7 90 +30 +30 очень
душно
1008.3 1005.6
00 17.07 Ю 1 15 км мгла 9/3 100 м
[Sc Ac trans Ci fib]
+23.8 +22.3 91 +31 +32 очень
душно
1009.8 1007.1 +22.4
03 17.07 Ю 6 12 км мгла 9/3 480 м
[Cu hum Ac lent Ci fib]
+30.7 +23.0 64 +41 +44 опасность
перегрева
1009.2 1006.5
06 17.07 Ю 5 12 км мгла 9/3 600 м
[Cu hum Ac lent Ci fib]
+32.7 +21.5 52 +41 +45 опасность
перегрева
1006.9 1004.2
09 17.07 Ю 4 12 км мгла 9/3 600 м
[Cu hum Ac lent Ci fib]
+32.3 +22.5 56 +42 +43 опасность
перегрева
1005.4 1002.8
12 17.07 ЮВ 2 10 км мгла 9/3 600 м
[Sc Ac trans Ci fib]
+28.6 +21.5 65 +36 +36 очень
душно
1007.0 1004.3 +33.3
15 17.07 Ю 2 10 км мгла 9/1 600 м
[Sc Ac lent Ci fib]
+26.9 +22.0 75 +35 +35 очень
душно
1008.8 1006.1
18 17.07 ЮЗ 1 10 км мгла 9/1 600 м
[Sc Ac lent Ci fib]
+25.8 +22.7 83 +34 +34 очень
душно
1008.3 1005.6
21 17.07 Ю 2 10 км мгла 9/3 600 м
[Sc Ac lent Ci fib]
+25.0 +21.9 83 +32 +32 очень
душно
1007.8 1005.1
00 18.07 ЮЗ 1 15 км мгла 9/1 600 м
[Sc Ac trans Ci fib]
+25.8 +22.6 83 +34 +36 очень
душно
1008.3 1005.6 +23.4
03 18.07 Ю 5 15 км мгла 9/4 420 м
[Cb cap Ac cuf Ci ing]
+30.6 +22.4 62 +40 +43 очень
душно
1008.3 1005.6
06 18.07 ЮВ 4 12 км мгла 9/3 600 м
[Cu med, cong Ac lent Ci fib]
+31.9 +23.0 59 +42 +47 опасность
перегрева
1006.3 1003.7

 

Местоположение метеостанции Кучинг (Малайзия): широта 1.48 долгота 110.33 высота над уровнем моря 27 м.

В архиве по умолчанию представлена погода в Кучинге за последнюю неделю. Архивные данные за месяц целиком и за предыдущие месяцы, начиная с января 2011 года, Вы можете получить, выбрав интересующий диапазон дат из раскрывающегося списка и нажав кнопку "Ввод!".


*Определитесь, кто Вы:
робот инопланетянин человек

Внимание! Время в таблицах - всемирное. Для получения местного времени необходимо прибавить поправку, которая равна 8 ч.

Смотрите также архив погоды в соседних городах и на ближайших метеорологических станциях:

Погода в Парохе (Индонезия) (119 км)
Погода в Сибу (Малайзия) (192 км)
Погода в Синтанге (Индонезия) (202 км)
Погода в Понтианаке (Индонезия) (209 км)
Погода в Нангапинохе (Индонезия) (260 км)
Погода на Путусиббау (Индонезия) (299 км)
Погода в Ранаи (Индонезия) (350 км)
Погода в Бинталу (Малайзия) (356 км)
Погода в Кетапанге (Индонезия) (373 км)
Погода в Пангкалан-Буне (Индонезия) (489 км)

Пояснения к столбцам:

Ветер - указаны скорость ветра в м/с - средняя за 10 мин, порывы в срок и между сроками (в фигурных скобках) и направление, откуда дует ветер: С - северный, СВ - северо-восточный, В - восточный, ЮВ - юго-восточный, Ю - южный, ЮЗ - юго-западный, З - западный, СЗ - северо-западный.
Видимость - горизонтальная дальность видимости в метрах или километрах. При видимости от 1 до 10 км при отсутствии осадков обычно наблюдается дымка, при ухудшении видимости до 1 км и менее - туман. В сухую погоду видимость может ухудшаться дымом, пылью или мглою.
Явления - указаны атмосферные явления, наблюдавшиеся в срок или в последний час перед сроком; фигурными скобками обозначены явления, наблюдавшиеся между сроками (за 1-3 часа до срока); квадратными скобками обозначены град или гололедные отложения с указанием их диаметра в мм.
Облачность - указаны через наклонную черту общая и нижняя облачность в баллах и высота нижней границы облаков в метрах; квадратными скобками обозначены формы облаков: Ci - перистые, Cs - перисто-слоистые, Cc - перисто-кучевые, Ac - высококучевые, As - высокослоистые, Sc - слоисто-кучевые, Ns - слоисто-дождевые, Cu - кучевые, Cb - кучево-дождевые. Подробнее классификацию облаков см. в Атласе облаков (PDF).
T - Температура воздуха - температура, измеренная на высоте 2 м над землей.
Td - Температура точки росы - температура, при понижении до которой содержащийся в воздухе водяной пар достигнет насыщения.
f - Относительная влажность воздуха - влажноcть воздуха, измеренная на высоте 2 м над землей.
Te - Эффективная температура - температура, которую ощущает одетый по сезону человек в тени. Характеристика душности погоды. При расчете учитывается влияние влажности воздуха и скорости ветра на теплоощущения человека.
Tes - Эффективная температура на солнце - температура, которую ощущает человек, с поправкой на солнечный нагрев. Характеристика знойности погоды. Зависит от высоты солнца над горизонтом, облачности и скорости ветра. Ночью, в пасмурную погоду, а также при ветре 12 м/с и более поправка равна нулю.
P - Атмосферное давление - приведенное к уровню моря атмосферное давление.
Po - Атмосферное давление - измеренное на уровне метеостанции атмосферное давление.
Tmin - Минимальная температура - минимум температуры воздуха на высоте 2 м над землей.
Tmax - Максимальная температура - максимум температуры воздуха на высоте 2 м над землей.
R - Количество осадков - Количество выпавших осадков за период времени, мм. При наведении курсора мыши на число - период времени, за который выпало указанное количество осадков.
R24 - Количество осадков - Количество выпавших осадков за 24 часа, мм.
S - Снежный покров - Высота снежного покрова, см. При наведении курсора мыши на число - состояние снежного покрова и степень покрытия местности в баллах.